Regional Weather Roundup
Issued by NWS Midland/Odessa, TX

Skip options and go directly to product.
Home | Oldest Version | Previous Version | Current Version | All | Text Only | Save Text | Print | Product List | Glossary Off

Skip product version selection by date and time.   

525
ASUS44 KMAF 210310
RWRMAF
MIDLAND AREA WEATHER ROUNDUP
NATIONAL WEATHER SERVICE MIDLAND TX
1000 PM CDT MON OCT 20 2014

...IN SOUTHWEST TEXAS AND SOUTHEAST NEW MEXICO...

CITY           SKY/WX    TMP DP  RH WIND       PRES   REMARKS
ALPINE         CLOUDY    58  57  94 NE5       30.19S
ANDREWS        FAIR      64  52  65 SE5       30.10R
ARTESIA        NOT AVBL
BIG SPRING     MOCLDY    66  51  58 E7        30.10R
CARLSBAD       CLOUDY    63  60  90 N3        30.10R
DRYDEN           N/A     67  61  81 E6        30.04R
FORT STOCKTON  MOCLDY    65  60  84 S9        30.08R
GUAD PASS      CLOUDY    56  52  86 NE29      30.14S
HOBBS          CLOUDY    63  61  94 CALM      30.13R
MARFA          MOCLDY    57  55  94 NE9       30.14S
MIDLAND AIRPK  CLOUDY    70  52  52 SE7       30.09R
MIDLAND INTL   CLOUDY    70  50  49 SE8       30.08R
ODESSA         CLOUDY    69  52  54 SE7       30.09R
PECOS          CLOUDY    64  62  94 CALM      30.07R FOG
PRESIDIO       MOCLDY    67  57  71 N9        30.02R
SEMINOLE       CLOUDY    64  53  68 CALM      30.11R
SNYDER         CLEAR     66  53  62 SE6       30.09R
WINK           MOCLDY    66  64  93 CALM      30.06R
$$
...OTHER STATIONS IN TEXAS...

CITY           SKY/WX    TMP DP  RH WIND       PRES   REMARKS
ABILENE        PTCLDY    66  53  63 SE6       30.07R
AMARILLO       PTCLDY    62  52  69 SW3       30.12R
AUSTIN         MOCLDY    64  60  87 CALM      30.03R
BROWNSVILLE    PTCLDY    76  70  82 N3        29.94R
CORPUS CHRISTI PTCLDY    75  71  87 E10       29.98R
DALLAS FTW     PTCLDY    69  59  70 SE6       30.04R
DEL RIO        CLOUDY    72  64  76 CALM      29.99R
EL PASO        CLOUDY    64  51  62 S12       30.07R
HOUSTON INT    MOCLDY    66  58  75 NE5       30.03R
LUBBOCK        PTCLDY    62  53  72 SE6       30.11R
SAN ANGELO     CLEAR     66  53  63 E6        30.06R
SAN ANTONIO    MOCLDY    73  59  61 NE3       30.03R
WACO           PTCLDY    67  59  75 SE5       30.05R
WICHITA FALLS  NOT AVBL
$$
...OTHER LOCATIONS IN NEW MEXICO...

CITY           SKY/WX    TMP DP  RH WIND       PRES   REMARKS
ALAMAGORDO     NOT AVBL
ALBUQUERQUE    LGT RAIN  57  47  69 E14       30.18R
CANNON AFB     MOCLDY    57  53  85 N3        30.16R
CLOVIS         MOCLDY    61  52  72 W5        30.18R
HOLLOMAN AFB   MOCLDY    60  60  99 NW5       30.09R
ROSWELL        LGT RAIN  59  55  87 W6        30.11S
RUIDOSO        LGT RAIN  48  46  93 S13       30.28R
SANTA FE       MOCLDY    52  47  83 CALM      30.22R
TRUTH OR CONSE CLOUDY    57  53  86 N6        30.13R
TUCUMCARI      MOCLDY    63  51  65 SW9       30.13R
$$

USA.gov is the U.S. government's official web portal to all federal, state and local government web resources and services.